Temp
80 80 79 78 78 78 78 78 78 79 79 79 78 79 77 74 70 70 72 72 79 79 78 78 79 78 79 79 80 80 80 79 79
79 78 78 78 78 79 79 79 79 79 79 78 78 77 76 70 69 69 70 73 79 79 78 78 78 78 78 78 79 79 79 79 78
78 78 79 79 79 78 78 78 78 78 78 77 76 76 74 71 69 69 69 77 79 79 78 78 78 78 78 78 78 79 79 79 79
78 79 79 78 78 77 77 77 77 77 76 76 74 74 73 66 68 72 70 78 78 78 78 77 77 78 78 78 78 78 78 78 79
78 77 78 77 77 76 76 75 74 74 74 74 73 71 69 65 66 67 72 78 79 78 77 77 77 77 78 78 78 78 78 78 78
67 75 76 76 75 75 74 73 71 69 70 71 70 66 59 62 63 64 74 77 79 79 78 77 77 77 77 77 77 77 77 77 77
66 70 73 73 73 72 72 70 68 62 55 56 61 56 56 57 58 60 73 75 77 78 78 77 76 76 76 77 77 77 77 77 77
53 52 53 53 62 54 56 54 54 54 54 53 53 54 54 52 54 60 71 73 75 77 77 77 76 76 76 76 76 76 77 77 76
51 51 51 51 51 52 52 51 53 53 54 50 51 50 51 52 53 55 68 70 72 75 77 77 77 76 76 76 76 75 76 76 77
51 51 51 51 51 52 51 51 51 51 52 52 51 50 50 50 51 50 63 68 70 73 74 76 77 76 76 76 75 75 75 75 76
52 52 51 51 51 51 51 50 50 50 51 52 52 50 49 49 50 51 50 66 69 71 73 73 76 76 76 75 74 74 74 74 75
52 52 51 51 51 52 51 51 50 50 52 49 50 51 49 49 50 51 52 52 62 68 69 72 74 75 75 74 74 74 74 74 74
52 52 51 51 51 51 50 50 50 49 49 48 50 49 49 49 50 51 51 51 52 56 66 67 70 72 72 73 74 74 74 74 74
53 52 51 51 51 50 51 48 49 48 48 51 49 48 46 47 52 48 50 50 50 50 59 62 64 67 69 70 71 72 73 74 74
52 51 51 50 50 48 48 48 46 46 45 52 50 46 45 45 45 46 51 49 49 49 50 48 52 62 65 67 69 70 71 72 73
52 50 50 50 50 49 49 47 46 45 43 44 44 44 45 43 44 44 45 47 48 48 48 48 48 50 59 61 65 67 69 71 71
53 52 50 49 48 48 47 47 44 43 43 42 38 38 43 44 46 44 46 44 45 48 49 48 48 47 48 53 60 61 65 68 70
53 51 50 49 47 47 46 45 45 43 41 42 43 37 35 36 42 44 44 44 44 44 45 48 48 48 47 50 52 59 62 65 67
52 52 50 48 46 45 45 46 43 42 42 40 45 40 40 37 35 39 42 43 45 44 44 45 46 47 46 51 55 59 61 62 64
51 50 49 47 45 45 45 43 42 41 41 40 39 37 36 35 35 37 36 40 42 42 43 43 44 45 46 45 49 58 60 61 62
MSLP
1017.23 1017.31 1017.40 1017.49 1017.45 1017.46 1017.44 1017.44 1017.28 1016.98 1016.87 1016.86 1016.82 1016.66 1016.80 1017.04 1017.10 1016.95 1016.83 1016.68 1016.41 1016.34 1016.33 1016.28 1016.10 1016.08 1015.90 1015.78 1015.64 1015.53 1015.49 1015.42 1015.56
1017.52 1017.67 1017.75 1017.84 1017.73 1017.70 1017.66 1017.67 1017.63 1017.40 1017.28 1017.20 1017.18 1017.14 1017.21 1017.45 1017.55 1017.50 1017.29 1017.00 1016.74 1016.63 1016.59 1016.65 1016.59 1016.42 1016.34 1016.26 1016.13 1016.03 1015.92 1015.79 1015.88
1017.99 1018.03 1018.06 1018.08 1018.06 1018.12 1018.15 1018.15 1018.11 1017.95 1017.82 1017.73 1017.62 1017.60 1017.75 1017.87 1017.93 1017.88 1017.74 1017.27 1017.10 1017.00 1016.93 1016.85 1016.80 1016.82 1016.71 1016.68 1016.58 1016.42 1016.44 1016.29 1016.23
1018.21 1018.28 1018.37 1018.47 1018.52 1018.56 1018.63 1018.66 1018.59 1018.53 1018.43 1018.28 1018.20 1018.12 1018.19 1018.36 1018.37 1018.20 1018.08 1017.73 1017.50 1017.46 1017.37 1017.23 1017.08 1016.99 1016.97 1016.97 1016.94 1016.85 1016.76 1016.80 1016.75
1018.53 1018.68 1018.76 1018.89 1018.99 1019.03 1019.11 1019.17 1019.13 1019.07 1019.06 1018.96 1018.90 1018.84 1018.75 1018.88 1018.89 1018.72 1018.36 1017.99 1017.85 1017.76 1017.70 1017.55 1017.40 1017.23 1017.18 1017.24 1017.17 1017.09 1016.99 1017.00 1017.03
1019.10 1019.10 1019.22 1019.35 1019.45 1019.57 1019.64 1019.66 1019.73 1019.81 1019.70 1019.59 1019.61 1019.59 1019.73 1019.57 1019.51 1019.36 1018.81 1018.42 1018.12 1017.98 1017.94 1017.84 1017.68 1017.54 1017.53 1017.46 1017.45 1017.37 1017.26 1017.27 1017.26
1019.65 1019.70 1019.80 1019.88 1020.00 1020.09 1020.18 1020.30 1020.38 1020.45 1020.53 1020.49 1020.34 1020.40 1020.36 1020.32 1020.22 1019.93 1019.36 1018.91 1018.48 1018.28 1018.16 1018.06 1018.00 1017.87 1017.75 1017.73 1017.60 1017.54 1017.54 1017.54 1017.55
1020.50 1020.70 1020.86 1020.84 1020.83 1021.08 1021.07 1021.08 1021.03 1020.98 1021.03 1021.10 1021.15 1021.02 1020.88 1020.91 1020.75 1020.31 1019.62 1019.29 1018.91 1018.49 1018.33 1018.21 1018.19 1018.13 1018.06 1018.00 1017.89 1017.75 1017.69 1017.69 1017.67
1021.00 1021.10 1021.23 1021.25 1021.42 1021.50 1021.57 1021.58 1021.54 1021.46 1021.44 1021.61 1021.68 1021.60 1021.51 1021.21 1021.11 1020.67 1020.05 1019.65 1019.30 1018.88 1018.48 1018.30 1018.24 1018.26 1018.16 1018.18 1018.15 1018.03 1017.89 1017.81 1017.74
1021.05 1021.39 1021.53 1021.61 1021.64 1021.76 1021.82 1021.85 1021.91 1021.90 1021.81 1021.79 1021.92 1021.84 1021.77 1021.47 1021.33 1021.00 1020.35 1019.88 1019.52 1019.13 1018.90 1018.52 1018.29 1018.33 1018.29 1018.26 1018.26 1018.25 1018.19 1018.05 1017.88
1021.16 1021.53 1021.89 1021.97 1021.89 1021.94 1022.00 1022.06 1022.09 1022.21 1022.13 1022.04 1021.96 1021.98 1021.83 1021.61 1021.49 1021.23 1020.93 1020.19 1019.74 1019.26 1019.03 1018.83 1018.49 1018.32 1018.36 1018.38 1018.37 1018.30 1018.19 1018.14 1018.04
1021.22 1021.57 1021.89 1021.99 1022.08 1022.02 1021.99 1022.07 1022.08 1022.21 1022.10 1022.17 1021.99 1021.93 1021.94 1021.85 1021.75 1021.52 1021.33 1020.97 1020.52 1019.83 1019.49 1019.01 1018.65 1018.45 1018.50 1018.51 1018.41 1018.34 1018.30 1018.12 1018.04
1021.19 1021.57 1021.87 1021.92 1021.95 1021.96 1022.16 1022.26 1022.35 1022.42 1022.43 1022.37 1022.16 1022.00 1021.94 1021.92 1021.74 1021.74 1021.55 1021.41 1021.18 1020.83 1020.26 1019.95 1019.46 1019.13 1018.87 1018.60 1018.45 1018.34 1018.27 1018.23 1018.10
1021.14 1021.49 1021.72 1021.82 1021.92 1022.07 1022.11 1022.47 1022.53 1022.74 1022.76 1022.67 1022.39 1022.16 1022.33 1022.18 1021.93 1021.97 1021.77 1021.62 1021.47 1021.27 1020.94 1020.56 1020.22 1019.83 1019.53 1019.24 1018.90 1018.59 1018.31 1018.20 1018.18
1021.15 1021.41 1021.60 1021.79 1022.02 1022.30 1022.44 1022.61 1022.88 1023.09 1023.17 1022.80 1022.61 1022.32 1022.26 1022.34 1022.34 1022.16 1021.92 1021.87 1021.74 1021.51 1021.32 1021.15 1020.96 1020.51 1020.15 1019.77 1019.30 1018.99 1018.76 1018.47 1018.10
1021.00 1021.38 1021.54 1021.77 1021.99 1022.22 1022.56 1022.71 1023.08 1023.26 1023.24 1023.07 1022.94 1022.77 1022.30 1022.41 1022.53 1022.36 1022.22 1022.06 1021.91 1021.66 1021.58 1021.47 1021.24 1020.94 1020.61 1020.45 1020.00 1019.62 1019.12 1018.66 1018.39
1020.95 1021.16 1021.39 1021.58 1021.99 1022.22 1022.37 1022.56 1023.02 1023.16 1023.19 1023.69 1024.13 1023.88 1023.14 1022.65 1022.41 1022.34 1022.32 1022.23 1021.97 1021.63 1021.46 1021.44 1021.35 1021.23 1020.96 1020.57 1020.26 1020.06 1019.59 1019.06 1018.58
1020.53 1020.76 1021.06 1021.39 1021.67 1021.87 1022.15 1022.41 1022.69 1023.17 1023.45 1023.42 1023.72 1024.27 1024.32 1023.80 1022.56 1022.18 1022.17 1022.09 1021.95 1021.86 1021.63 1021.28 1021.09 1020.97 1020.90 1020.66 1020.35 1019.94 1019.60 1019.27 1018.86
1020.36 1020.52 1020.79 1021.09 1021.52 1021.90 1022.11 1022.29 1022.53 1022.91 1023.36 1023.52 1023.38 1023.56 1023.86 1024.04 1023.48 1022.77 1022.16 1021.85 1021.77 1021.61 1021.45 1021.18 1020.90 1020.70 1020.55 1020.37 1020.13 1019.77 1019.41 1019.08 1018.83
1020.33 1020.54 1020.79 1021.08 1021.41 1021.63 1021.87 1022.18 1022.48 1022.74 1023.09 1023.40 1023.59 1023.77 1023.88 1023.94 1024.18 1022.93 1022.50 1022.18 1021.58 1021.23 1020.96 1020.76 1020.61 1020.32 1020.12 1019.98 1019.82 1019.40 1019.08 1018.75 1018.50
Wind_Speed
13 13 13 13 13 13 13 13 14 15 15 14 14 12 11 9 6 5 7 5 13 14 14 14 15 14 15 14 14 14 13 10 10
13 13 13 12 13 14 14 14 15 17 16 15 13 11 12 6 5 5 6 6 12 12 12 12 13 13 13 13 13 13 13 12 12
13 13 13 13 15 16 16 16 17 18 18 17 15 12 11 7 6 6 5 10 12 12 11 10 10 11 12 11 11 11 11 11 12
13 13 14 14 15 16 17 17 18 19 19 20 19 18 15 6 5 6 4 11 13 13 12 13 9 8 9 10 9 9 8 8 9
11 13 14 15 15 16 17 17 18 19 19 20 19 18 15 7 6 6 6 11 12 12 12 13 12 8 7 8 9 9 5 6 7
9 14 14 15 15 16 17 18 18 18 18 19 18 16 6 7 5 4 13 13 11 12 12 11 11 11 10 7 6 7 6 4 4
8 11 14 15 16 17 18 18 18 13 5 6 12 5 6 5 5 4 15 13 10 10 10 11 10 10 10 10 9 5 5 2 2
4 4 4 4 11 4 7 7 5 8 6 5 5 6 6 4 4 8 14 13 12 10 7 8 9 10 9 9 10 8 6 5 3
4 4 4 5 3 6 5 4 5 7 7 7 6 6 5 4 3 6 14 13 12 11 9 7 7 8 8 9 8 9 9 8 7
4 4 4 4 3 4 5 5 5 6 6 6 6 7 6 6 3 3 13 12 11 10 9 10 6 6 8 7 8 9 9 9 8
5 4 4 4 3 3 4 4 4 4 4 5 6 6 6 6 5 4 5 15 14 11 9 8 7 5 7 8 7 8 9 8 8
6 5 4 3 2 4 4 4 4 4 4 5 5 4 6 5 6 5 4 6 16 18 18 14 11 7 8 7 7 7 8 8 7
5 4 4 4 3 3 3 3 3 4 4 4 5 5 4 5 5 4 4 4 5 10 18 17 16 12 11 11 9 8 6 7 6
5 4 4 4 3 3 2 3 3 3 3 4 4 5 4 4 3 6 5 6 5 4 13 16 17 15 13 12 10 11 10 6 6
5 4 4 3 3 2 2 2 2 2 2 3 4 4 3 2 1 4 3 5 5 6 6 5 7 17 16 13 12 11 10 11 8
6 4 4 3 3 3 2 2 2 1 2 3 4 4 4 4 2 2 1 4 4 5 5 4 4 4 13 14 15 14 12 11 10
4 5 5 5 3 4 3 3 2 1 3 3 2 5 6 4 3 2 3 2 3 4 3 5 5 5 4 7 14 15 15 13 12
7 6 4 5 3 4 3 3 4 2 1 0 4 2 3 3 4 3 4 4 4 4 5 5 5 5 4 7 9 12 14 14 13
5 5 5 4 3 3 3 4 3 4 3 1 2 2 4 3 5 3 4 5 4 5 4 5 5 5 4 8 11 14 15 14 12
3 3 3 3 3 3 4 4 4 3 3 3 2 2 1 3 4 8 4 3 5 5 5 5 5 6 5 5 8 15 16 15 15
Wind_Direction
94 86 82 76 71 68 64 62 58 56 49 49 52 86 82 65 45 41 33 34 50 50 48 42 39 40 39 50 59 59 66 77 90
92 87 75 75 72 64 61 68 58 56 53 49 59 74 71 57 41 30 18 26 43 44 44 44 42 40 40 36 48 55 62 69 82
86 87 81 75 71 64 64 66 64 59 54 49 48 60 63 54 41 29 13 36 40 34 34 39 42 39 40 41 37 47 51 65 77
92 85 85 76 70 68 67 64 63 60 55 51 52 57 61 49 33 24 7 36 40 35 25 23 23 35 35 36 37 37 52 55 81
93 80 81 79 75 71 68 64 60 58 55 52 50 48 44 34 25 13 8 27 34 33 27 24 20 23 36 26 25 27 52 65 81
65 87 85 80 77 72 68 65 61 54 49 48 48 44 28 28 20 1 15 13 17 22 21 21 23 25 20 9 9 13 22 93 84
75 83 82 80 77 73 69 63 58 52 44 36 38 36 28 26 9 0 11 9 2 5 20 19 18 20 22 15 4 358 10 14 151
74 73 65 61 72 53 55 47 43 46 38 37 35 26 24 14 1 356 11 10 3 358 10 16 18 17 17 16 16 13 342 334 316
87 85 83 76 62 72 59 54 47 45 44 40 35 31 18 13 350 352 359 358 0 358 350 356 21 15 18 16 11 9 3 357 318
115 97 88 83 82 73 66 59 49 41 35 35 28 18 11 6 352 343 354 355 357 359 356 351 8 1 7 11 12 0 351 347 343
117 112 96 82 80 82 80 72 61 51 39 28 19 16 2 7 13 8 6 25 23 16 5 352 339 350 6 358 2 357 347 334 334
132 128 121 123 99 93 81 66 60 40 19 29 10 14 5 14 24 19 14 15 29 33 34 28 18 16 11 7 358 350 353 352 341
131 125 134 151 125 104 82 51 49 41 26 356 352 359 10 17 34 18 21 16 22 16 26 27 27 28 11 1 354 355 344 352 347
140 150 157 153 119 87 86 61 78 39 4 334 343 349 11 8 24 24 28 21 27 14 17 22 22 17 12 6 358 346 351 329 345
153 158 163 145 123 109 76 87 46 64 339 328 336 336 3 350 81 23 24 12 23 13 25 21 4 4 5 2 2 358 344 334 324
173 172 164 165 153 170 168 120 85 59 353 23 346 328 341 358 217 347 354 1 13 22 19 360 355 351 4 357 354 350 339 332 322
187 189 194 183 165 176 173 159 137 84 21 109 96 359 333 349 276 351 331 311 324 2 358 348 345 341 336 326 339 338 333 328 318
206 201 191 194 186 194 180 163 147 161 328 121 130 13 246 324 315 307 324 321 327 324 312 318 312 301 305 320 318 318 319 316 313
217 212 203 198 177 180 178 167 159 151 195 312 221 233 163 232 311 312 284 295 280 272 288 286 286 281 283 291 296 304 299 298 298
251 222 195 184 176 186 179 158 160 168 156 183 187 247 250 232 230 294 292 301 265 258 251 258 267 269 268 268 274 289 289 285 278